"Sample Date","Sample Time","Sample Value","Units","Flow Rate","Sample Interval","Number Channels","Micron Size 0","Counts/Channel 0","Micron Size 1","Counts/Channel 1","Micron Size 2","Counts/Channel 2","Micron Size 3","Counts/Channel 3","Micron Size 4","Counts/Channel 4","Micron Size 5","Counts/Channel 5","Micron Size 6","Counts/Channel 6","Micron Size 7","Counts/Channel 7","Micron Size 8","Counts/Channel 8","Micron Size 9","Counts/Channel 9","Micron Size 10","Counts/Channel 10","Micron Size 11","Counts/Channel 11","Micron Size 12","Counts/Channel 12","Micron Size 13","Counts/Channel 13","Micron Size 14","Counts/Channel 14","Micron Size 15","Counts/Channel 15","Micron Size 16","Counts/Channel 16","Micron Size 17","Counts/Channel 17","Micron Size 18","Counts/Channel 18","Micron Size 19","Counts/Channel 19","Micron Size 20","Counts/Channel 20","Micron Size 21","Counts/Channel 21","Micron Size 22","Counts/Channel 22","Micron Size 23","Counts/Channel 23","Micron Size 24","Counts/Channel 24","Micron Size 25","Counts/Channel 25","Micron Size 26","Counts/Channel 26","Micron Size 27","Counts/Channel 27","Micron Size 28","Counts/Channel 28","Micron Size 29","Counts/Channel 29","Micron Size 30","Counts/Channel 30","Micron Size 31","Counts/Channel 31"
"04/09/08","07:00:01",13968.000,"cc",28365.348,6.00,6,0.100,7996.000,0.200,1850.000,0.300,1472.000,0.500,1852.000,1.000,797.000,5.000,1.000
"04/09/08","07:00:07",13909.000,"cc",28267.096,6.00,6,0.100,7744.000,0.200,1969.000,0.300,1533.000,0.500,1829.000,1.000,833.000,5.000,1.000
"04/09/08","07:00:13",14098.000,"cc",28270.541,6.00,6,0.100,7998.000,0.200,1859.000,0.300,1532.000,0.500,1864.000,1.000,844.000,5.000,1.000
"04/09/08","07:00:19",13794.000,"cc",28348.016,6.00,6,0.100,7993.000,0.200,1787.000,0.300,1472.000,0.500,1757.000,1.000,785.000,5.000,0
"04/09/08","07:00:25",14081.000,"cc",28370.307,6.00,6,0.100,7885.000,0.200,1931.000,0.300,1554.000,0.500,1884.000,1.000,827.000,5.000,0
"04/09/08","07:00:31",13997.000,"cc",28343.074,6.00,6,0.100,7828.000,0.200,1903.000,0.300,1554.000,0.500,1905.000,1.000,806.000,5.000,1.000
"04/09/08","07:00:37",14073.000,"cc",28323.787,6.00,6,0.100,7891.000,0.200,1929.000,0.300,1529.000,0.500,1897.000,1.000,827.000,5.000,0
"04/09/08","07:00:43",13950.000,"cc",28238.795,6.00,6,0.100,8011.000,0.200,1833.000,0.300,1525.000,0.500,1801.000,1.000,780.000,5.000,0
"04/09/08","07:00:49",14116.000,"cc",28289.106,6.00,6,0.100,7951.000,0.200,1891.000,0.300,1564.000,0.500,1906.000,1.000,802.000,5.000,2.000
"04/09/08","07:00:55",14157.000,"cc",28398.682,6.00,6,0.100,8006.000,0.200,1914.000,0.300,1544.000,0.500,1898.000,1.000,795.000,5.000,0
"04/09/08","07:01:01",13788.000,"cc",28362.705,6.00,6,0.100,7850.000,0.200,1854.000,0.300,1512.000,0.500,1797.000,1.000,774.000,5.000,1.000
"04/09/08","07:01:07",13736.000,"cc",28311.131,6.00,6,0.100,7851.000,0.200,1730.000,0.300,1525.000,0.500,1851.000,1.000,779.000,5.000,0
"04/09/08","07:01:13",14051.000,"cc",28302.244,6.00,6,0.100,8105.000,0.200,1866.000,0.300,1457.000,0.500,1825.000,1.000,796.000,5.000,2.000
"04/09/08","07:01:19",14121.000,"cc",28294.236,6.00,6,0.100,8108.000,0.200,1861.000,0.300,1495.000,0.500,1876.000,1.000,781.000,5.000,0
"04/09/08","07:01:25",13957.000,"cc",28324.908,6.00,6,0.100,8047.000,0.200,1818.000,0.300,1472.000,0.500,1849.000,1.000,771.000,5.000,0
"04/09/08","07:01:31",14260.000,"cc",28345.691,6.00,6,0.100,8064.000,0.200,1910.000,0.300,1561.000,0.500,1869.000,1.000,853.000,5.000,3.000
"04/09/08","07:01:37",14388.000,"cc",28289.645,6.00,6,0.100,8197.000,0.200,1885.000,0.300,1547.000,0.500,1940.000,1.000,819.000,5.000,0
"04/09/08","07:01:43",13834.000,"cc",28343.746,6.00,6,0.100,7987.000,0.200,1810.000,0.300,1435.000,0.500,1810.000,1.000,791.000,5.000,1.000
"04/09/08","07:01:49",13962.000,"cc",28333.990,6.00,6,0.100,8131.000,0.200,1809.000,0.300,1452.000,0.500,1750.000,1.000,820.000,5.000,0
"04/09/08","07:01:55",14169.000,"cc",28263.611,6.00,6,0.100,8185.000,0.200,1843.000,0.300,1539.000,0.500,1841.000,1.000,760.000,5.000,1.000
"04/09/08","07:02:01",14160.000,"cc",28292.568,6.00,6,0.100,8072.000,0.200,1868.000,0.300,1508.000,0.500,1929.000,1.000,783.000,5.000,0
"04/09/08","07:02:07",14123.000,"cc",28331.705,6.00,6,0.100,8113.000,0.200,1857.000,0.300,1517.000,0.500,1838.000,1.000,797.000,5.000,1.000
"04/09/08","07:02:13",13962.000,"cc",28366.609,6.00,6,0.100,8153.000,0.200,1784.000,0.300,1373.000,0.500,1773.000,1.000,878.000,5.000,1.000
"04/09/08","07:02:19",14466.000,"cc",28306.065,6.00,6,0.100,8291.000,0.200,1899.000,0.300,1552.000,0.500,1951.000,1.000,772.000,5.000,1.000
"04/09/08","07:02:25",14467.000,"cc",28193.891,6.00,6,0.100,8092.000,0.200,2007.000,0.300,1529.000,0.500,1994.000,1.000,845.000,5.000,0
"04/09/08","07:02:31",14717.000,"cc",28305.518,6.00,6,0.100,8368.000,0.200,1965.000,0.300,1560.000,0.500,1979.000,1.000,845.000,5.000,0
"04/09/08","07:02:37",15041.000,"cc",28416.440,6.00,6,0.100,8536.000,0.200,2079.000,0.300,1586.000,0.500,2043.000,1.000,797.000,5.000,0
"04/09/08","07:02:43",14056.000,"cc",28425.691,6.00,6,0.100,8159.000,0.200,1806.000,0.300,1458.000,0.500,1835.000,1.000,798.000,5.000,0
"04/09/08","07:02:49",14230.000,"cc",28279.023,6.00,6,0.100,8334.000,0.200,1814.000,0.300,1485.000,0.500,1787.000,1.000,809.000,5.000,1.000
"04/09/08","07:02:55",13850.000,"cc",28307.986,6.00,6,0.100,8050.000,0.200,1819.000,0.300,1438.000,0.500,1804.000,1.000,738.000,5.000,1.000
"04/09/08","07:03:01",14061.000,"cc",28344.400,6.00,6,0.100,8079.000,0.200,1913.000,0.300,1452.000,0.500,1795.000,1.000,822.000,5.000,0
"04/09/08","07:03:07",14512.000,"cc",28308.754,6.00,6,0.100,8329.000,0.200,1913.000,0.300,1495.000,0.500,1944.000,1.000,830.000,5.000,1.000
"04/09/08","07:03:13",14565.000,"cc",28286.119,6.00,6,0.100,8219.000,0.200,1967.000,0.300,1505.000,0.500,2012.000,1.000,861.000,5.000,1.000
"04/09/08","07:03:19",14600.000,"cc",28310.648,6.00,6,0.100,8325.000,0.200,1978.000,0.300,1534.000,0.500,1934.000,1.000,829.000,5.000,0
"04/09/08","07:03:25",14379.000,"cc",28327.936,6.00,6,0.100,8138.000,0.200,1915.000,0.300,1504.000,0.500,1950.000,1.000,872.000,5.000,0
"04/09/08","07:03:31",14531.000,"cc",28277.832,6.00,6,0.100,8408.000,0.200,1909.000,0.300,1460.000,0.500,1946.000,1.000,806.000,5.000,2.000
"04/09/08","07:03:37",14531.000,"cc",28410.873,6.00,6,0.100,8328.000,0.200,1954.000,0.300,1535.000,0.500,1864.000,1.000,849.000,5.000,1.000
"04/09/08","07:03:43",14135.000,"cc",28338.748,6.00,6,0.100,8293.000,0.200,1819.000,0.300,1501.000,0.500,1795.000,1.000,727.000,5.000,0
"04/09/08","07:03:49",14423.000,"cc",28279.938,6.00,6,0.100,8401.000,0.200,1892.000,0.300,1468.000,0.500,1853.000,1.000,809.000,5.000,0
"04/09/08","07:03:55",14479.000,"cc",28168.316,6.00,6,0.100,8424.000,0.200,1923.000,0.300,1544.000,0.500,1837.000,1.000,751.000,5.000,0
"04/09/08","07:04:01",14596.000,"cc",28273.734,6.00,6,0.100,8503.000,0.200,1902.000,0.300,1480.000,0.500,1910.000,1.000,801.000,5.000,0
"04/09/08","07:04:07",14546.000,"cc",28324.293,6.00,6,0.100,8359.000,0.200,1914.000,0.300,1567.000,0.500,1905.000,1.000,798.000,5.000,3.000
"04/09/08","07:04:13",14507.000,"cc",28371.484,6.00,6,0.100,8423.000,0.200,2009.000,0.300,1457.000,0.500,1822.000,1.000,796.000,5.000,0
"04/09/08","07:04:19",14349.000,"cc",28312.803,6.00,6,0.100,8415.000,0.200,1863.000,0.300,1466.000,0.500,1820.000,1.000,785.000,5.000,0
"04/09/08","07:04:25",14583.000,"cc",28347.703,6.00,6,0.100,8440.000,0.200,1934.000,0.300,1521.000,0.500,1874.000,1.000,813.000,5.000,1.000
"04/09/08","07:04:31",14535.000,"cc",28321.836,6.00,6,0.100,8361.000,0.200,1898.000,0.300,1501.000,0.500,1904.000,1.000,871.000,5.000,0
"04/09/08","07:04:37",14043.000,"cc",28284.879,6.00,6,0.100,8412.000,0.200,1797.000,0.300,1420.000,0.500,1679.000,1.000,734.000,5.000,1.000
"04/09/08","07:04:43",14339.000,"cc",28402.174,6.00,6,0.100,8510.000,0.200,1828.000,0.300,1455.000,0.500,1788.000,1.000,757.000,5.000,1.000
"04/09/08","07:04:49",14409.000,"cc",28366.586,6.00,6,0.100,8379.000,0.200,1920.000,0.300,1459.000,0.500,1869.000,1.000,780.000,5.000,2.000
"04/09/08","07:04:55",14602.000,"cc",28274.838,6.00,6,0.100,8363.000,0.200,1960.000,0.300,1493.000,0.500,1958.000,1.000,827.000,5.000,1.000
"04/09/08","07:05:01",15124.000,"cc",28327.914,6.00,6,0.100,8632.000,0.200,2007.000,0.300,1659.000,0.500,1997.000,1.000,828.000,5.000,1.000
"04/09/08","07:05:07",14870.000,"cc",28276.695,6.00,6,0.100,8675.000,0.200,1926.000,0.300,1612.000,0.500,1900.000,1.000,756.000,5.000,1.000
"04/09/08","07:05:13",14553.000,"cc",28404.859,6.00,6,0.100,8348.000,0.200,1915.000,0.300,1541.000,0.500,1883.000,1.000,864.000,5.000,2.000
"04/09/08","07:05:19",14998.000,"cc",28262.002,6.00,6,0.100,8852.000,0.200,1955.000,0.300,1499.000,0.500,1898.000,1.000,793.000,5.000,1.000
"04/09/08","07:05:25",14790.000,"cc",28271.957,6.00,6,0.100,8616.000,0.200,1895.000,0.300,1592.000,0.500,1854.000,1.000,833.000,5.000,0
"04/09/08","07:05:31",15174.000,"cc",28307.506,6.00,6,0.100,8621.000,0.200,2047.000,0.300,1683.000,0.500,1986.000,1.000,836.000,5.000,1.000
"04/09/08","07:05:37",14870.000,"cc",28296.801,6.00,6,0.100,8611.000,0.200,1940.000,0.300,1563.000,0.500,1885.000,1.000,871.000,5.000,0
"04/09/08","07:05:43",14746.000,"cc",28333.096,6.00,6,0.100,8575.000,0.200,1932.000,0.300,1473.000,0.500,1951.000,1.000,814.000,5.000,1.000
"04/09/08","07:05:49",14920.000,"cc",28289.100,6.00,6,0.100,8610.000,0.200,1943.000,0.300,1602.000,0.500,1940.000,1.000,824.000,5.000,1.000
"04/09/08","07:05:55",14870.000,"cc",28321.410,6.00,6,0.100,8605.000,0.200,1997.000,0.300,1560.000,0.500,1852.000,1.000,856.000,5.000,0
"04/09/08","07:06:01",15023.000,"cc",28322.096,6.00,6,0.100,8733.000,0.200,1970.000,0.300,1578.000,0.500,1905.000,1.000,836.000,5.000,1.000
"04/09/08","07:06:07",15251.000,"cc",28334.131,6.00,6,0.100,8914.000,0.200,2025.000,0.300,1624.000,0.500,1871.000,1.000,817.000,5.000,0
"04/09/08","07:06:13",15112.000,"cc",28263.100,6.00,6,0.100,8677.000,0.200,2040.000,0.300,1586.000,0.500,1965.000,1.000,844.000,5.000,0
"04/09/08","07:06:19",14888.000,"cc",28381.279,6.00,6,0.100,8762.000,0.200,1935.000,0.300,1468.000,0.500,1906.000,1.000,817.000,5.000,0
"04/09/08","07:06:25",14872.000,"cc",28349.467,6.00,6,0.100,8701.000,0.200,1935.000,0.300,1561.000,0.500,1897.000,1.000,778.000,5.000,0
"04/09/08","07:06:31",14709.000,"cc",28300.014,6.00,6,0.100,8524.000,0.200,1958.000,0.300,1538.000,0.500,1875.000,1.000,814.000,5.000,0
"04/09/08","07:06:37",14951.000,"cc",28325.859,6.00,6,0.100,8736.000,0.200,2053.000,0.300,1532.000,0.500,1838.000,1.000,791.000,5.000,1.000
"04/09/08","07:06:43",14994.000,"cc",28327.152,6.00,6,0.100,8778.000,0.200,1942.000,0.300,1574.000,0.500,1860.000,1.000,840.000,5.000,0
"04/09/08","07:06:49",14889.000,"cc",28335.424,6.00,6,0.100,8749.000,0.200,1965.000,0.300,1554.000,0.500,1811.000,1.000,810.000,5.000,0
"04/09/08","07:06:55",15013.000,"cc",28288.299,6.00,6,0.100,8809.000,0.200,1929.000,0.300,1547.000,0.500,1871.000,1.000,857.000,5.000,0
"04/09/08","07:07:01",15307.000,"cc",28405.072,6.00,6,0.100,8823.000,0.200,1998.000,0.300,1606.000,0.500,2015.000,1.000,864.000,5.000,1.000
"04/09/08","07:07:07",15143.000,"cc",28311.898,6.00,6,0.100,8837.000,0.200,1927.000,0.300,1596.000,0.500,1927.000,1.000,856.000,5.000,0
"04/09/08","07:07:13",15197.000,"cc",28272.315,6.00,6,0.100,8729.000,0.200,2092.000,0.300,1609.000,0.500,1920.000,1.000,844.000,5.000,3.000
"04/09/08","07:07:19",15712.000,"cc",28247.156,6.00,6,0.100,9210.000,0.200,2051.000,0.300,1677.000,0.500,1936.000,1.000,836.000,5.000,2.000
"04/09/08","07:07:25",15398.000,"cc",28359.264,6.00,6,0.100,8837.000,0.200,2058.000,0.300,1646.000,0.500,1984.000,1.000,873.000,5.000,0
"04/09/08","07:07:31",14540.000,"cc",28359.760,6.00,6,0.100,8545.000,0.200,1819.000,0.300,1520.000,0.500,1875.000,1.000,780.000,5.000,1.000
"04/09/08","07:07:37",14992.000,"cc",28344.531,6.00,6,0.100,8805.000,0.200,1951.000,0.300,1447.000,0.500,1933.000,1.000,856.000,5.000,0
"04/09/08","07:07:43",15192.000,"cc",28304.070,6.00,6,0.100,8910.000,0.200,1999.000,0.300,1516.000,0.500,1940.000,1.000,826.000,5.000,1.000
"04/09/08","07:07:49",15305.000,"cc",28373.506,6.00,6,0.100,8865.000,0.200,2014.000,0.300,1574.000,0.500,1960.000,1.000,892.000,5.000,0
"04/09/08","07:07:55",15275.000,"cc",28348.014,6.00,6,0.100,8964.000,0.200,2065.000,0.300,1537.000,0.500,1871.000,1.000,838.000,5.000,0
"04/09/08","07:08:01",15365.000,"cc",28195.908,6.00,6,0.100,8878.000,0.200,2104.000,0.300,1571.000,0.500,1963.000,1.000,849.000,5.000,0
"04/09/08","07:08:07",15429.000,"cc",28342.154,6.00,6,0.100,8974.000,0.200,1995.000,0.300,1580.000,0.500,1998.000,1.000,882.000,5.000,0
"04/09/08","07:08:13",15056.000,"cc",28245.518,6.00,6,0.100,8909.000,0.200,1994.000,0.300,1474.000,0.500,1822.000,1.000,856.000,5.000,1.000
"04/09/08","07:08:19",15325.000,"cc",28309.119,6.00,6,0.100,8971.000,0.200,1896.000,0.300,1618.000,0.500,1986.000,1.000,854.000,5.000,0
"04/09/08","07:08:25",15471.000,"cc",28308.582,6.00,6,0.100,9012.000,0.200,2025.000,0.300,1627.000,0.500,1967.000,1.000,839.000,5.000,1.000
"04/09/08","07:08:31",15364.000,"cc",28324.949,6.00,6,0.100,8999.000,0.200,2009.000,0.300,1573.000,0.500,1963.000,1.000,819.000,5.000,1.000
"04/09/08","07:08:37",15194.000,"cc",28360.537,6.00,6,0.100,8936.000,0.200,1973.000,0.300,1556.000,0.500,1896.000,1.000,832.000,5.000,1.000
"04/09/08","07:08:43",14761.000,"cc",28363.973,6.00,6,0.100,8752.000,0.200,1847.000,0.300,1465.000,0.500,1831.000,1.000,863.000,5.000,3.000
"04/09/08","07:08:49",15184.000,"cc",28349.088,6.00,6,0.100,9101.000,0.200,1918.000,0.300,1534.000,0.500,1801.000,1.000,830.000,5.000,0
"04/09/08","07:08:55",15389.000,"cc",28236.684,6.00,6,0.100,8978.000,0.200,2082.000,0.300,1544.000,0.500,1939.000,1.000,844.000,5.000,2.000
"04/09/08","07:09:01",15611.000,"cc",28235.176,6.00,6,0.100,9203.000,0.200,1956.000,0.300,1650.000,0.500,1964.000,1.000,838.000,5.000,0
"04/09/08","07:09:07",15467.000,"cc",28297.627,6.00,6,0.100,9130.000,0.200,2022.000,0.300,1527.000,0.500,1943.000,1.000,844.000,5.000,1.000
"04/09/08","07:09:13",14805.000,"cc",28446.539,6.00,6,0.100,8808.000,0.200,1919.000,0.300,1508.000,0.500,1814.000,1.000,756.000,5.000,0
"04/09/08","07:09:19",15287.000,"cc",28270.750,6.00,6,0.100,8990.000,0.200,2062.000,0.300,1541.000,0.500,1869.000,1.000,824.000,5.000,1.000
"04/09/08","07:09:25",15271.000,"cc",28236.195,6.00,6,0.100,9142.000,0.200,1910.000,0.300,1493.000,0.500,1924.000,1.000,801.000,5.000,1.000
"04/09/08","07:09:31",15701.000,"cc",28361.586,6.00,6,0.100,9148.000,0.200,2035.000,0.300,1689.000,0.500,1945.000,1.000,884.000,5.000,0
"04/09/08","07:09:37",15611.000,"cc",28345.199,6.00,6,0.100,9143.000,0.200,2074.000,0.300,1601.000,0.500,1927.000,1.000,866.000,5.000,0
"04/09/08","07:09:43",15775.000,"cc",28262.813,6.00,6,0.100,9241.000,0.200,2027.000,0.300,1632.000,0.500,2013.000,1.000,862.000,5.000,0
"04/09/08","07:09:49",15507.000,"cc",28340.760,6.00,6,0.100,9252.000,0.200,1936.000,0.300,1558.000,0.500,1946.000,1.000,813.000,5.000,2.000
"04/09/08","07:09:55",15622.000,"cc",28380.504,6.00,6,0.100,9299.000,0.200,2028.000,0.300,1517.000,0.500,1966.000,1.000,812.000,5.000,0
"04/09/08","07:10:01",15387.000,"cc",28265.318,6.00,6,0.100,9092.000,0.200,1958.000,0.300,1589.000,0.500,1910.000,1.000,837.000,5.000,1.000
"04/09/08","07:10:07",15718.000,"cc",28226.117,6.00,6,0.100,9172.000,0.200,2052.000,0.300,1660.000,0.500,1957.000,1.000,877.000,5.000,0
"04/09/08","07:10:13",15319.000,"cc",28382.965,6.00,6,0.100,9056.000,0.200,1986.000,0.300,1547.000,0.500,1927.000,1.000,803.000,5.000,0
"04/09/08","07:10:19",15507.000,"cc",28284.705,6.00,6,0.100,9123.000,0.200,1975.000,0.300,1608.000,0.500,1939.000,1.000,860.000,5.000,2.000
"04/09/08","07:10:25",15644.000,"cc",28431.147,6.00,6,0.100,9293.000,0.200,1992.000,0.300,1575.000,0.500,1917.000,1.000,867.000,5.000,0
"04/09/08","07:10:31",15555.000,"cc",28373.248,6.00,6,0.100,9204.000,0.200,2006.000,0.300,1538.000,0.500,1958.000,1.000,848.000,5.000,1.000
"04/09/08","07:10:37",15342.000,"cc",28407.533,6.00,6,0.100,9148.000,0.200,1914.000,0.300,1567.000,0.500,1879.000,1.000,834.000,5.000,0
"04/09/08","07:10:43",15575.000,"cc",28286.981,6.00,6,0.100,9171.000,0.200,1983.000,0.300,1601.000,0.500,1925.000,1.000,894.000,5.000,1.000
"04/09/08","07:10:49",15867.000,"cc",28188.082,6.00,6,0.100,9294.000,0.200,2117.000,0.300,1572.000,0.500,2008.000,1.000,875.000,5.000,1.000
"04/09/08","07:10:55",15796.000,"cc",28339.713,6.00,6,0.100,9279.000,0.200,2109.000,0.300,1579.000,0.500,1989.000,1.000,839.000,5.000,1.000
"04/09/08","07:11:01",15812.000,"cc",28375.125,6.00,6,0.100,9270.000,0.200,2032.000,0.300,1684.000,0.500,1944.000,1.000,879.000,5.000,3.000
"04/09/08","07:11:07",15712.000,"cc",28381.152,6.00,6,0.100,9270.000,0.200,2084.000,0.300,1598.000,0.500,1979.000,1.000,781.000,5.000,0
"04/09/08","07:11:13",15574.000,"cc",28354.570,6.00,6,0.100,9239.000,0.200,1904.000,0.300,1529.000,0.500,2008.000,1.000,894.000,5.000,0
"04/09/08","07:11:19",15094.000,"cc",28253.162,6.00,6,0.100,9094.000,0.200,1855.000,0.300,1498.000,0.500,1804.000,1.000,842.000,5.000,1.000
"04/09/08","07:11:25",15809.000,"cc",28256.453,6.00,6,0.100,9330.000,0.200,2004.000,0.300,1606.000,0.500,1952.000,1.000,917.000,5.000,0
"04/09/08","07:11:31",15825.000,"cc",28292.432,6.00,6,0.100,9229.000,0.200,2027.000,0.300,1675.000,0.500,2084.000,1.000,810.000,5.000,0
"04/09/08","07:11:37",15643.000,"cc",28380.932,6.00,6,0.100,9225.000,0.200,2006.000,0.300,1503.000,0.500,1969.000,1.000,940.000,5.000,0
"04/09/08","07:11:43",15819.000,"cc",28356.568,6.00,6,0.100,9482.000,0.200,1946.000,0.300,1592.000,0.500,1945.000,1.000,852.000,5.000,2.000
"04/09/08","07:11:49",15129.000,"cc",28240.231,6.00,6,0.100,8892.000,0.200,1958.000,0.300,1559.000,0.500,1900.000,1.000,820.000,5.000,0
"04/09/08","07:11:55",15549.000,"cc",28323.328,6.00,6,0.100,9152.000,0.200,2008.000,0.300,1574.000,0.500,1967.000,1.000,846.000,5.000,2.000
"04/09/08","07:12:01",15969.000,"cc",28288.094,6.00,6,0.100,9423.000,0.200,2028.000,0.300,1614.000,0.500,2026.000,1.000,878.000,5.000,0
"04/09/08","07:12:07",15991.000,"cc",28309.256,6.00,6,0.100,9542.000,0.200,2015.000,0.300,1610.000,0.500,1938.000,1.000,885.000,5.000,1.000
"04/09/08","07:12:13",16237.000,"cc",28305.244,6.00,6,0.100,9471.000,0.200,2162.000,0.300,1665.000,0.500,2022.000,1.000,917.000,5.000,0
"04/09/08","07:12:19",15954.000,"cc",28332.611,6.00,6,0.100,9333.000,0.200,2057.000,0.300,1640.000,0.500,2046.000,1.000,877.000,5.000,1.000
"04/09/08","07:12:25",15493.000,"cc",28393.789,6.00,6,0.100,9278.000,0.200,2008.000,0.300,1569.000,0.500,1801.000,1.000,836.000,5.000,1.000
"04/09/08","07:12:31",15501.000,"cc",28264.891,6.00,6,0.100,9182.000,0.200,2020.000,0.300,1609.000,0.500,1842.000,1.000,848.000,5.000,0
"04/09/08","07:12:37",15417.000,"cc",28276.484,6.00,6,0.100,9172.000,0.200,1964.000,0.300,1546.000,0.500,1882.000,1.000,853.000,5.000,0
"04/09/08","07:12:43",15656.000,"cc",28238.961,6.00,6,0.100,9412.000,0.200,1987.000,0.300,1517.000,0.500,1895.000,1.000,845.000,5.000,0
"04/09/08","07:12:49",15614.000,"cc",28349.352,6.00,6,0.100,9409.000,0.200,1974.000,0.300,1484.000,0.500,1899.000,1.000,847.000,5.000,1.000
"04/09/08","07:12:55",15499.000,"cc",28334.154,6.00,6,0.100,9170.000,0.200,2054.000,0.300,1494.000,0.500,1916.000,1.000,865.000,5.000,0
"04/09/08","07:13:01",15523.000,"cc",28321.895,6.00,6,0.100,9294.000,0.200,2055.000,0.300,1480.000,0.500,1932.000,1.000,762.000,5.000,0
"04/09/08","07:13:07",15632.000,"cc",28240.678,6.00,6,0.100,9315.000,0.200,1966.000,0.300,1577.000,0.500,1933.000,1.000,841.000,5.000,0
"04/09/08","07:13:13",15700.000,"cc",28367.469,6.00,6,0.100,9433.000,0.200,1993.000,0.300,1534.000,0.500,1920.000,1.000,819.000,5.000,1.000
"04/09/08","07:13:19",15637.000,"cc",28338.033,6.00,6,0.100,9519.000,0.200,1888.000,0.300,1475.000,0.500,1863.000,1.000,891.000,5.000,1.000
"04/09/08","07:13:25",15606.000,"cc",28338.445,6.00,6,0.100,9402.000,0.200,1939.000,0.300,1540.000,0.500,1855.000,1.000,867.000,5.000,3.000
"04/09/08","07:13:31",16003.000,"cc",28247.303,6.00,6,0.100,9609.000,0.200,2059.000,0.300,1540.000,0.500,1881.000,1.000,914.000,5.000,0
"04/09/08","07:13:37",15442.000,"cc",28365.391,6.00,6,0.100,9272.000,0.200,1987.000,0.300,1519.000,0.500,1810.000,1.000,854.000,5.000,0
"04/09/08","07:13:43",15339.000,"cc",28351.830,6.00,6,0.100,9145.000,0.200,2033.000,0.300,1476.000,0.500,1865.000,1.000,820.000,5.000,0
"04/09/08","07:13:49",15363.000,"cc",28239.559,6.00,6,0.100,9191.000,0.200,1966.000,0.300,1448.000,0.500,1876.000,1.000,882.000,5.000,0
"04/09/08","07:13:55",15913.000,"cc",28373.486,6.00,6,0.100,9434.000,0.200,1937.000,0.300,1629.000,0.500,1981.000,1.000,931.000,5.000,1.000
"04/09/08","07:14:01",16059.000,"cc",28303.356,6.00,6,0.100,9557.000,0.200,2104.000,0.300,1579.000,0.500,2019.000,1.000,800.000,5.000,0
"04/09/08","07:14:07",15527.000,"cc",28352.789,6.00,6,0.100,9226.000,0.200,2031.000,0.300,1530.000,0.500,1935.000,1.000,804.000,5.000,1.000
"04/09/08","07:14:13",16011.000,"cc",28318.023,6.00,6,0.100,9535.000,0.200,1992.000,0.300,1584.000,0.500,1979.000,1.000,921.000,5.000,0
"04/09/08","07:14:19",16267.000,"cc",28304.897,6.00,6,0.100,9655.000,0.200,2065.000,0.300,1654.000,0.500,2048.000,1.000,844.000,5.000,1.000
"04/09/08","07:14:25",15883.000,"cc",28243.076,6.00,6,0.100,9370.000,0.200,2024.000,0.300,1646.000,0.500,1954.000,1.000,889.000,5.000,0
"04/09/08","07:14:31",15890.000,"cc",28262.934,6.00,6,0.100,9364.000,0.200,2012.000,0.300,1657.000,0.500,1970.000,1.000,887.000,5.000,0
"04/09/08","07:14:37",16175.000,"cc",28282.826,6.00,6,0.100,9601.000,0.200,1996.000,0.300,1616.000,0.500,2043.000,1.000,918.000,5.000,1.000
"04/09/08","07:14:43",16265.000,"cc",28356.793,6.00,6,0.100,9457.000,0.200,2206.000,0.300,1632.000,0.500,2060.000,1.000,910.000,5.000,0
"04/09/08","07:14:49",16223.000,"cc",28358.539,6.00,6,0.100,9658.000,0.200,2051.000,0.300,1654.000,0.500,1965.000,1.000,892.000,5.000,3.000
"04/09/08","07:14:55",16091.000,"cc",28291.977,6.00,6,0.100,9435.000,0.200,2115.000,0.300,1651.000,0.500,1981.000,1.000,909.000,5.000,0
"04/09/08","07:15:01",16262.000,"cc",28237.643,6.00,6,0.100,9658.000,0.200,2125.000,0.300,1595.000,0.500,2023.000,1.000,861.000,5.000,0
"04/09/08","07:15:07",16012.000,"cc",28396.508,6.00,6,0.100,9479.000,0.200,2058.000,0.300,1629.000,0.500,1961.000,1.000,885.000,5.000,0
"04/09/08","07:15:13",16062.000,"cc",28404.682,6.00,6,0.100,9654.000,0.200,1983.000,0.300,1578.000,0.500,1997.000,1.000,849.000,5.000,1.000
"04/09/08","07:15:19",16017.000,"cc",28267.809,6.00,6,0.100,9390.000,0.200,2098.000,0.300,1616.000,0.500,1991.000,1.000,921.000,5.000,1.000
"04/09/08","07:15:25",15927.000,"cc",28263.627,6.00,6,0.100,9489.000,0.200,1957.000,0.300,1669.000,0.500,1951.000,1.000,861.000,5.000,0
"04/09/08","07:15:31",15955.000,"cc",28318.717,6.00,6,0.100,9427.000,0.200,2015.000,0.300,1627.000,0.500,1949.000,1.000,937.000,5.000,0
"04/09/08","07:15:37",16154.000,"cc",28382.760,6.00,6,0.100,9591.000,0.200,2091.000,0.300,1647.000,0.500,1976.000,1.000,849.000,5.000,0
"04/09/08","07:15:43",15914.000,"cc",28241.246,6.00,6,0.100,9464.000,0.200,2029.000,0.300,1531.000,0.500,1986.000,1.000,903.000,5.000,1.000
"04/09/08","07:15:49",16304.000,"cc",28334.877,6.00,6,0.100,9592.000,0.200,2101.000,0.300,1558.000,0.500,2098.000,1.000,954.000,5.000,1.000
"04/09/08","07:15:55",16080.000,"cc",28312.400,6.00,6,0.100,9526.000,0.200,2029.000,0.300,1595.000,0.500,2046.000,1.000,884.000,5.000,0
"04/09/08","07:16:01",16341.000,"cc",28290.963,6.00,6,0.100,9628.000,0.200,2142.000,0.300,1683.000,0.500,1994.000,1.000,892.000,5.000,2.000
"04/09/08","07:16:07",16198.000,"cc",28380.348,6.00,6,0.100,9707.000,0.200,2039.000,0.300,1553.000,0.500,2006.000,1.000,890.000,5.000,3.000
"04/09/08","07:16:13",16195.000,"cc",28293.854,6.00,6,0.100,9595.000,0.200,2013.000,0.300,1630.000,0.500,2079.000,1.000,878.000,5.000,0